Regional Weather Roundup
Issued by NWS

Home | Current Version | Previous Version | Graphics & Text | Print | Product List | Glossary On
Versions: 1 2 3 4 5 6 7 8 9 10 11 12 13 14 15 16 17 18 19 20 21 22 23 24 25 26 27 28 29 30 31 32 33 34 35 36 37 38 39 40 41 42 43 44 45 46 47 48 49 50
000
ASUS45 KCYS 211110
RWRWY

WYOMING REGIONAL WEATHER ROUNDUP
NATIONAL WEATHER SERVICE CHEYENNE WY
500 AM MDT TUE APR 21 2015

NOTE:  "FAIR" INDICATES FEW OR NO CLOUDS BELOW 12,000 FEET
WITH NO SIGNIFICANT WEATHER AND/OR OBSTRUCTIONS TO VISIBILITY.

WYZ001-211200-
YELLOWSTONE NATIONAL PARK

CITY           SKY/WX    TMP DP  RH WIND       PRES   REMARKS
LK YELLOWSTONE   N/A     23  19  85 CALM      30.00S
W YELLOWSTONE  NOT AVBL

$$
WYZ002>013-054>058-071-098>099-211200-
NORTHERN WYOMING

CITY           SKY/WX    TMP DP  RH WIND       PRES   REMARKS
JACKSON        FAIR      30  27  86 N3        29.96S
CODY           FAIR      37  28  70 CALM      29.89R
GREYBULL       FAIR      33  20  58 CALM      29.88R
WORLAND        FAIR      32  21  64 CALM      29.87S
SHERIDAN       FAIR      33  27  78 S3        29.83F
BUFFALO        CLOUDY    44  22  41 W6        29.84S
GILLETTE       FAIR      40  21  46 SW16      29.82F WCI  31
HULETT         CLOUDY    37  19  48 SW7       29.83S WCI  32
NEWCASTLE      PTSUNNY   34  23  64 SE7       29.87F WCI  28

$$
WYZ014>020-022>026-101>103-211200-
CENTRAL WYOMING

CITY           SKY/WX    TMP DP  RH WIND       PRES   REMARKS
BIG PINEY      FAIR      26  16  65 E5        29.98S WCI  20
PINEDALE       FAIR      21  19  93 W5        29.99S WCI  15
DUBOIS         PTSUNNY   32  21  64 NW3       29.94F
LANDER         FAIR      37  24  59 CALM      29.91R
RIVERTON       FAIR      34  24  67 W7        29.92S WCI  28
CASPER         FAIR      31  23  72 SW9       29.89F WCI  23
DOUGLAS        FAIR      27  24  89 CALM      29.89F

$$
WYZ021-027>030-104>119-211200-
SOUTHERN WYOMING

CITY           SKY/WX    TMP DP  RH WIND       PRES   REMARKS
EVANSTON       FAIR      36  21  54 S6        29.98S WCI  31
FORT BRIDGER   SUNNY     34  23  64 SW9       30.00S WCI  26
ROCK SPRINGS   FAIR      36  19  50 CALM      29.97S
DIXON          FAIR      29  26  90 CALM      30.00R
RAWLINS        FAIR      26  21  81 CALM      29.95S
SARATOGA       FAIR      28  25  86 CALM      29.96F
LARAMIE        FAIR      22  19  89 SE7       29.93F WCI  13
CHEYENNE       FAIR      30  21  69 W6        29.91F WCI  24
TORRINGTON     FAIR      26  22  84 E6        29.89S WCI  19
PINE BLUFFS    FAIR      27  25  93 W5        29.91F WCI  21

$$


USA.gov is the U.S. government's official web portal to all federal, state and local government web resources and services.